03-05-2022, 00:00:06,     28,    0.0,    9.0,   0.00,   0.00, 1017.5,   78.9, -999.0
03-05-2022, 00:00:15,     28,    0.0,    8.9,   0.00,   0.00, 1017.5,   78.7, -999.0
03-05-2022, 00:00:25,     28,    0.0,    8.9,   0.00,   0.00, 1017.5,   79.0, -999.0
03-05-2022, 00:00:35,     28,    0.0,    9.0,   0.00,   0.00, 1017.5,   78.9, -999.0
03-05-2022, 00:00:45,     28,    0.0,    9.0,   0.00,   0.00, 1017.5,   78.9, -999.0
03-05-2022, 00:00:55,     28,    0.0,    9.0,   0.00,   0.00, 1017.5,   78.8, -999.0
03-05-2022, 00:01:05,     30,    0.1,    9.0,   0.00,   0.00, 1017.5,   78.8, -999.0
03-05-2022, 00:01:15,     29,    0.0,    9.0,   0.00,   0.00, 1017.5,   78.6, -999.0
03-05-2022, 00:01:25,     29,    0.0,    8.9,   0.00,   0.00, 1017.5,   78.6, -999.0
03-05-2022, 00:01:35,     29,    0.0,    9.0,   0.00,   0.00, 1017.5,   78.5, -999.0
03-05-2022, 00:01:45,     30,    0.0,    9.1,   0.00,   0.00, 1017.5,   78.6, -999.0
03-05-2022, 00:01:55,     29,    0.0,    9.0,   0.00,   0.00, 1017.5,   78.6, -999.0
03-05-2022, 00:02:05,     29,    0.0,    9.0,   0.00,   0.00, 1017.5,   78.6, -999.0
03-05-2022, 00:02:15,     30,    0.0,    9.0,   0.00,   0.00, 1017.4,   78.5, -999.0
03-05-2022, 00:02:25,     29,    0.0,    9.1,   0.00,   0.00, 1017.5,   78.5, -999.0
03-05-2022, 00:02:35,     30,    0.0,    9.0,   0.00,   0.00, 1017.5,   78.4, -999.0
03-05-2022, 00:02:45,     29,    0.0,    9.0,   0.00,   0.00, 1017.5,   78.3, -999.0
03-05-2022, 00:02:55,     30,    0.0,    9.0,   0.00,   0.00, 1017.5,   78.2, -999.0
03-05-2022, 00:03:04,     30,    0.0,    9.0,   0.00,   0.00, 1017.5,   78.2, -999.0
03-05-2022, 00:03:15,     30,    0.0,    8.9,   0.00,   0.00, 1017.5,   78.2, -999.0
03-05-2022, 00:03:24,     29,    0.0,    8.9,   0.00,   0.00, 1017.5,   78.4, -999.0
03-05-2022, 00:03:34,     30,    0.0,    9.0,   0.00,   0.00, 1017.5,   78.3, -999.0
03-05-2022, 00:03:45,     30,    0.0,    9.0,   0.00,   0.00, 1017.5,   78.3, -999.0
03-05-2022, 00:03:54,     30,    0.0,    8.9,   0.00,   0.00, 1017.5,   78.2, -999.0
03-05-2022, 00:04:04,     29,    0.0,    9.0,   0.00,   0.00, 1017.5,   78.2, -999.0
03-05-2022, 00:04:14,     30,    0.0,    9.1,   0.00,   0.00, 1017.5,   78.3, -999.0
03-05-2022, 00:04:24,     29,    0.0,    9.0,   0.00,   0.00, 1017.5,   78.2, -999.0
03-05-2022, 00:04:34,     30,    0.0,    9.0,   0.00,   0.00, 1017.5,   78.0, -999.0
03-05-2022, 00:04:44,     29,    0.0,    9.0,   0.00,   0.00, 1017.5,   78.1, -999.0
03-05-2022, 00:04:54,     29,    0.0,    9.1,   0.00,   0.00, 1017.5,   78.1, -999.0
03-05-2022, 00:05:04,     29,    0.0,    9.1,   0.00,   0.00, 1017.5,   78.2, -999.0
03-05-2022, 00:05:14,     30,    0.0,    9.1,   0.00,   0.00, 1017.5,   78.2, -999.0
03-05-2022, 00:05:24,     29,    0.0,    9.0,   0.00,   0.00, 1017.5,   78.1, -999.0
03-05-2022, 00:05:34,     30,    0.0,    9.1,   0.00,   0.00, 1017.5,   78.1, -999.0
03-05-2022, 00:05:44,     28,    0.0,    9.1,   0.00,   0.00, 1017.5,   78.0, -999.0
03-05-2022, 00:05:54,     29,    0.0,    9.0,   0.00,   0.00, 1017.5,   77.9, -999.0
03-05-2022, 00:06:04,     30,    0.0,    9.0,   0.00,   0.00, 1017.5,   77.9, -999.0
03-05-2022, 00:06:14,    358,    0.1,    9.0,   0.00,   0.00, 1017.5,   77.9, -999.0
03-05-2022, 00:06:24,    357,    0.0,    9.0,   0.00,   0.00, 1017.5,   77.6, -999.0
03-05-2022, 00:06:34,    358,    0.0,    9.1,   0.00,   0.00, 1017.5,   77.6, -999.0
03-05-2022, 00:06:43,    296,    0.0,    9.1,   0.00,   0.00, 1017.4,   77.8, -999.0
03-05-2022, 00:06:54,      4,    0.5,    9.1,   0.00,   0.00, 1017.6,   78.0, -999.0
03-05-2022, 00:07:03,      5,    0.3,    9.2,   0.00,   0.00, 1017.6,   77.8, -999.0
03-05-2022, 00:07:13,      4,    0.0,    9.0,   0.00,   0.00, 1017.5,   77.4, -999.0
03-05-2022, 00:07:23,      4,    0.0,    9.0,   0.00,   0.00, 1017.5,   77.4, -999.0
03-05-2022, 00:07:33,      4,    0.0,    9.0,   0.00,   0.00, 1017.4,   77.4, -999.0
03-05-2022, 00:07:43,      4,    0.0,    9.0,   0.00,   0.00, 1017.5,   77.6, -999.0
03-05-2022, 00:07:53,      4,    0.0,    9.0,   0.00,   0.00, 1017.4,   77.5, -999.0
03-05-2022, 00:08:03,      4,    0.0,    9.1,   0.00,   0.00, 1017.5,   77.6, -999.0
03-05-2022, 00:08:13,      4,    0.0,    9.1,   0.00,   0.00, 1017.5,   77.4, -999.0
03-05-2022, 00:08:23,      4,    0.0,    9.1,   0.00,   0.00, 1017.5,   77.5, -999.0
03-05-2022, 00:08:33,      4,    0.0,    9.1,   0.00,   0.00, 1017.5,   77.3, -999.0
03-05-2022, 00:08:43,      5,    0.1,    9.1,   0.00,   0.00, 1017.5,   77.2, -999.0
03-05-2022, 00:08:53,      4,    0.0,    9.1,   0.00,   0.00, 1017.5,   77.0, -999.0
03-05-2022, 00:09:03,      4,    0.0,    9.0,   0.00,   0.00, 1017.5,   77.1, -999.0
03-05-2022, 00:09:13,      4,    0.0,    9.0,   0.00,   0.00, 1017.5,   77.1, -999.0
03-05-2022, 00:09:23,      4,    0.0,    9.2,   0.00,   0.00, 1017.5,   77.2, -999.0
03-05-2022, 00:09:33,      4,    0.0,    9.2,   0.00,   0.00, 1017.5,   77.4, -999.0
03-05-2022, 00:09:43,      4,    0.0,    9.2,   0.00,   0.00, 1017.5,   77.3, -999.0
03-05-2022, 00:09:52,      4,    0.0,    9.2,   0.00,   0.00, 1017.5,   77.3, -999.0
03-05-2022, 00:10:03,      4,    0.0,    9.2,   0.00,   0.00, 1017.5,   77.3, -999.0
03-05-2022, 00:10:13,      4,    0.0,    9.2,   0.00,   0.00, 1017.5,   77.1, -999.0
03-05-2022, 00:10:22,      4,    0.0,    9.2,   0.00,   0.00, 1017.5,   77.1, -999.0
03-05-2022, 00:10:32,      4,    0.0,    9.2,   0.00,   0.00, 1017.5,   77.1, -999.0
03-05-2022, 00:10:42,      4,    0.0,    9.2,   0.00,   0.00, 1017.5,   77.1, -999.0
03-05-2022, 00:10:52,      4,    0.0,    9.3,   0.00,   0.00, 1017.5,   76.9, -999.0
03-05-2022, 00:11:02,      4,    0.0,    9.3,   0.00,   0.00, 1017.5,   76.9, -999.0
03-05-2022, 00:11:12,      4,    0.0,    9.2,   0.00,   0.00, 1017.5,   76.8, -999.0
03-05-2022, 00:11:22,      4,    0.0,    9.3,   0.00,   0.00, 1017.5,   76.8, -999.0
03-05-2022, 00:11:32,      4,    0.0,    9.2,   0.00,   0.00, 1017.5,   76.7, -999.0
03-05-2022, 00:11:42,      4,    0.0,    9.2,   0.00,   0.00, 1017.5,   76.6, -999.0
03-05-2022, 00:11:52,      4,    0.0,    9.1,   0.00,   0.00, 1017.5,   76.5, -999.0
03-05-2022, 00:12:02,      3,    0.0,    9.2,   0.00,   0.00, 1017.5,   76.5, -999.0
03-05-2022, 00:12:12,      5,    0.0,    9.2,   0.00,   0.00, 1017.4,   76.4, -999.0
03-05-2022, 00:12:22,      5,    0.0,    9.1,   0.00,   0.00, 1017.4,   76.5, -999.0
03-05-2022, 00:12:32,      5,    0.0,    9.1,   0.00,   0.00, 1017.4,   76.4, -999.0
03-05-2022, 00:12:42,      5,    0.0,    9.1,   0.00,   0.00, 1017.5,   76.2, -999.0
03-05-2022, 00:12:52,      4,    0.2,    9.2,   0.00,   0.00, 1017.5,   76.3, -999.0
03-05-2022, 00:13:01,     11,    0.0,    9.1,   0.00,   0.00, 1017.5,   76.1, -999.0
03-05-2022, 00:13:12,     11,    0.0,    9.1,   0.00,   0.00, 1017.5,   76.4, -999.0
03-05-2022, 00:13:22,     11,    0.0,    9.1,   0.00,   0.00, 1017.5,   76.2, -999.0
03-05-2022, 00:13:31,     11,    0.0,    9.2,   0.00,   0.00, 1017.5,   76.2, -999.0
03-05-2022, 00:13:41,     11,    0.0,    9.2,   0.00,   0.00, 1017.5,   76.2, -999.0
03-05-2022, 00:13:52,     11,    0.0,    9.0,   0.00,   0.00, 1017.5,   76.1, -999.0
03-05-2022, 00:14:01,     19,    1.1,    9.2,   0.00,   0.00, 1017.6,   76.6, -999.0
03-05-2022, 00:14:11,     20,    0.9,    9.2,   0.00,   0.00, 1017.6,   76.4, -999.0
03-05-2022, 00:14:22,     20,    0.4,    9.2,   0.00,   0.00, 1017.6,   76.2, -999.0
03-05-2022, 00:14:31,     20,    0.0,    9.1,   0.00,   0.00, 1017.5,   75.9, -999.0
03-05-2022, 00:14:41,     20,    0.0,    9.1,   0.00,   0.00, 1017.5,   75.9, -999.0
03-05-2022, 00:14:51,     20,    0.0,    9.1,   0.00,   0.00, 1017.5,   76.0, -999.0
03-05-2022, 00:15:01,     20,    0.0,    9.1,   0.00,   0.00, 1017.5,   76.1, -999.0
03-05-2022, 00:15:11,     20,    0.0,    9.1,   0.00,   0.00, 1017.5,   76.1, -999.0
03-05-2022, 00:15:21,     20,    0.0,    9.1,   0.00,   0.00, 1017.5,   76.1, -999.0
03-05-2022, 00:15:31,     20,    0.0,    9.1,   0.00,   0.00, 1017.5,   76.1, -999.0
03-05-2022, 00:15:41,     20,    0.0,    9.0,   0.00,   0.00, 1017.5,   76.1, -999.0
03-05-2022, 00:15:51,     20,    0.0,    9.0,   0.00,   0.00, 1017.5,   76.2, -999.0
03-05-2022, 00:16:01,     20,    0.0,    9.1,   0.00,   0.00, 1017.5,   76.1, -999.0
03-05-2022, 00:16:11,     19,    0.0,    9.1,   0.00,   0.00, 1017.5,   76.0, -999.0
03-05-2022, 00:16:21,     20,    0.0,    9.2,   0.00,   0.00, 1017.5,   76.1, -999.0
03-05-2022, 00:16:31,     20,    0.0,    9.1,   0.00,   0.00, 1017.4,   76.2, -999.0
03-05-2022, 00:16:40,     20,    0.0,    9.0,   0.00,   0.00, 1017.5,   76.0, -999.0
03-05-2022, 00:16:51,     20,    0.0,    8.9,   0.00,   0.00, 1017.5,   76.0, -999.0
03-05-2022, 00:17:01,     20,    0.0,    8.9,   0.00,   0.00, 1017.5,   76.0, -999.0
03-05-2022, 00:17:10,     20,    0.0,    9.0,   0.00,   0.00, 1017.5,   76.1, -999.0
03-05-2022, 00:17:20,     20,    0.0,    9.0,   0.00,   0.00, 1017.5,   76.0, -999.0
03-05-2022, 00:17:31,     20,    0.0,    9.1,   0.00,   0.00, 1017.5,   76.1, -999.0
03-05-2022, 00:17:40,     20,    0.0,    9.0,   0.00,   0.00, 1017.5,   76.1, -999.0
03-05-2022, 00:17:50,     20,    0.0,    9.0,   0.00,   0.00, 1017.5,   76.2, -999.0
03-05-2022, 00:18:00,     20,    0.0,    9.0,   0.00,   0.00, 1017.5,   76.3, -999.0
03-05-2022, 00:18:10,     20,    0.0,    9.0,   0.00,   0.00, 1017.5,   76.2, -999.0
03-05-2022, 00:18:20,     20,    0.0,    9.0,   0.00,   0.00, 1017.5,   76.2, -999.0
03-05-2022, 00:18:30,     20,    0.0,    9.0,   0.00,   0.00, 1017.5,   76.2, -999.0
03-05-2022, 00:18:40,     20,    0.0,    9.0,   0.00,   0.00, 1017.5,   76.2, -999.0
03-05-2022, 00:18:50,     20,    0.0,    9.0,   0.00,   0.00, 1017.5,   76.2, -999.0
03-05-2022, 00:19:00,     13,    0.0,    9.0,   0.00,   0.00, 1017.5,   76.4, -999.0
03-05-2022, 00:19:10,     13,    0.0,    9.0,   0.00,   0.00, 1017.5,   76.4, -999.0
03-05-2022, 00:19:20,     13,    0.0,    9.0,   0.00,   0.00, 1017.5,   76.4, -999.0
03-05-2022, 00:19:30,     13,    0.0,    9.0,   0.00,   0.00, 1017.5,   76.3, -999.0
03-05-2022, 00:19:40,     13,    0.0,    8.9,   0.00,   0.00, 1017.5,   76.2, -999.0
03-05-2022, 00:19:50,     13,    0.0,    8.9,   0.00,   0.00, 1017.5,   76.2, -999.0
03-05-2022, 00:20:00,     13,    0.0,    9.0,   0.00,   0.00, 1017.5,   76.2, -999.0
03-05-2022, 00:20:10,     13,    0.0,    9.0,   0.00,   0.00, 1017.5,   76.2, -999.0
03-05-2022, 00:20:19,     13,    0.0,    9.0,   0.00,   0.00, 1017.5,   76.3, -999.0
03-05-2022, 00:20:29,     13,    0.0,    8.9,   0.00,   0.00, 1017.5,   76.3, -999.0
03-05-2022, 00:20:40,     13,    0.0,    8.9,   0.00,   0.00, 1017.5,   76.3, -999.0
03-05-2022, 00:20:49,     13,    0.0,    8.9,   0.00,   0.00, 1017.5,   76.2, -999.0
03-05-2022, 00:20:59,     13,    0.0,    8.9,   0.00,   0.00, 1017.5,   76.4, -999.0
03-05-2022, 00:21:09,     13,    0.0,    8.9,   0.00,   0.00, 1017.5,   76.4, -999.0
03-05-2022, 00:21:19,     13,    0.0,    8.9,   0.00,   0.00, 1017.5,   76.5, -999.0
03-05-2022, 00:21:29,     10,    0.1,    9.0,   0.00,   0.00, 1017.5,   76.5, -999.0
03-05-2022, 00:21:39,     10,    0.0,    8.9,   0.00,   0.00, 1017.5,   76.3, -999.0
03-05-2022, 00:21:49,     11,    0.1,    9.0,   0.00,   0.00, 1017.6,   76.5, -999.0
03-05-2022, 00:21:59,     10,    0.0,    8.9,   0.00,   0.00, 1017.5,   76.3, -999.0
03-05-2022, 00:22:09,     11,    0.0,    8.9,   0.00,   0.00, 1017.5,   76.4, -999.0
03-05-2022, 00:22:19,     10,    0.0,    8.9,   0.00,   0.00, 1017.5,   76.4, -999.0
03-05-2022, 00:22:29,     11,    0.0,    8.9,   0.00,   0.00, 1017.5,   76.4, -999.0
03-05-2022, 00:22:39,     10,    0.0,    8.9,   0.00,   0.00, 1017.5,   76.4, -999.0
03-05-2022, 00:22:49,     10,    0.0,    8.9,   0.00,   0.00, 1017.5,   76.4, -999.0
03-05-2022, 00:22:59,     10,    0.0,    8.9,   0.00,   0.00, 1017.5,   76.5, -999.0
03-05-2022, 00:23:09,     10,    0.0,    8.9,   0.00,   0.00, 1017.5,   76.5, -999.0
03-05-2022, 00:23:19,     11,    0.0,    8.9,   0.00,   0.00, 1017.5,   76.4, -999.0
03-05-2022, 00:23:29,     10,    0.0,    8.9,   0.00,   0.00, 1017.5,   76.5, -999.0
03-05-2022, 00:23:38,     10,    0.0,    8.9,   0.00,   0.00, 1017.5,   76.5, -999.0
03-05-2022, 00:23:49,     10,    0.0,    8.9,   0.00,   0.00, 1017.5,   76.5, -999.0
03-05-2022, 00:23:58,     11,    0.1,    8.9,   0.00,   0.00, 1017.5,   76.6, -999.0
03-05-2022, 00:24:08,     11,    0.0,    8.9,   0.00,   0.00, 1017.5,   76.3, -999.0
03-05-2022, 00:24:19,     11,    0.0,    8.9,   0.00,   0.00, 1017.5,   76.4, -999.0
03-05-2022, 00:24:28,     11,    0.0,    8.8,   0.00,   0.00, 1017.5,   76.5, -999.0
03-05-2022, 00:24:38,     11,    0.0,    8.8,   0.00,   0.00, 1017.5,   76.5, -999.0
03-05-2022, 00:24:48,     11,    0.0,    8.9,   0.00,   0.00, 1017.5,   76.5, -999.0
03-05-2022, 00:24:58,      6,    0.3,    8.9,   0.00,   0.00, 1017.6,   76.8, -999.0
03-05-2022, 00:25:08,      6,    0.0,    8.8,   0.00,   0.00, 1017.5,   76.5, -999.0
03-05-2022, 00:25:18,      7,    0.0,    8.8,   0.00,   0.00, 1017.5,   76.7, -999.0
03-05-2022, 00:25:28,      6,    0.0,    8.9,   0.00,   0.00, 1017.5,   76.7, -999.0
03-05-2022, 00:25:38,      6,    0.0,    8.9,   0.00,   0.00, 1017.5,   76.7, -999.0
03-05-2022, 00:25:48,     32,    0.0,    8.9,   0.00,   0.00, 1017.4,   76.6, -999.0
03-05-2022, 00:25:58,     32,    0.0,    8.8,   0.00,   0.00, 1017.5,   76.6, -999.0
03-05-2022, 00:26:08,     32,    0.0,    8.9,   0.00,   0.00, 1017.5,   76.6, -999.0
03-05-2022, 00:26:18,      9,    0.3,    8.9,   0.00,   0.00, 1017.5,   76.6, -999.0
03-05-2022, 00:26:28,      9,    0.2,    8.9,   0.00,   0.00, 1017.5,   76.7, -999.0
03-05-2022, 00:26:38,     10,    0.0,    8.8,   0.00,   0.00, 1017.5,   76.6, -999.0
03-05-2022, 00:26:48,      9,    0.0,    8.8,   0.00,   0.00, 1017.5,   76.6, -999.0
03-05-2022, 00:26:58,      9,    0.0,    8.8,   0.00,   0.00, 1017.5,   76.5, -999.0
03-05-2022, 00:27:08,      9,    0.0,    8.8,   0.00,   0.00, 1017.5,   76.7, -999.0
03-05-2022, 00:27:17,      9,    0.0,    8.7,   0.00,   0.00, 1017.5,   76.6, -999.0
03-05-2022, 00:27:28,      9,    0.0,    8.8,   0.00,   0.00, 1017.5,   76.6, -999.0
03-05-2022, 00:27:37,      9,    0.0,    8.8,   0.00,   0.00, 1017.5,   76.8, -999.0
03-05-2022, 00:27:47,      9,    0.0,    8.9,   0.00,   0.00, 1017.5,   76.9, -999.0
03-05-2022, 00:27:57,      8,    0.0,    8.9,   0.00,   0.00, 1017.5,   76.8, -999.0
03-05-2022, 00:28:07,      9,    0.0,    8.9,   0.00,   0.00, 1017.5,   76.9, -999.0
03-05-2022, 00:28:17,     10,    0.1,    8.9,   0.00,   0.00, 1017.5,   77.1, -999.0
03-05-2022, 00:28:27,     10,    0.0,    8.8,   0.00,   0.00, 1017.5,   76.8, -999.0
03-05-2022, 00:28:37,     10,    0.0,    8.8,   0.00,   0.00, 1017.5,   76.7, -999.0
03-05-2022, 00:28:47,     10,    0.0,    8.8,   0.00,   0.00, 1017.5,   76.8, -999.0
03-05-2022, 00:28:57,     10,    0.0,    8.8,   0.00,   0.00, 1017.5,   76.8, -999.0
03-05-2022, 00:29:07,     10,    0.0,    8.9,   0.00,   0.00, 1017.5,   76.9, -999.0
03-05-2022, 00:29:17,     11,    0.0,    8.8,   0.00,   0.00, 1017.5,   76.8, -999.0
03-05-2022, 00:29:27,     10,    0.0,    8.8,   0.00,   0.00, 1017.5,   76.9, -999.0
03-05-2022, 00:29:37,     10,    0.0,    8.8,   0.00,   0.00, 1017.5,   76.9, -999.0
03-05-2022, 00:29:47,     10,    0.0,    8.8,   0.00,   0.00, 1017.5,   76.8, -999.0
03-05-2022, 00:29:57,     10,    0.0,    8.8,   0.00,   0.00, 1017.5,   76.8, -999.0
03-05-2022, 00:30:07,     10,    0.0,    8.9,   0.00,   0.00, 1017.5,   76.9, -999.0
03-05-2022, 00:30:17,     10,    0.0,    8.9,   0.00,   0.00, 1017.5,   76.9, -999.0
03-05-2022, 00:30:26,     10,    0.0,    8.9,   0.00,   0.00, 1017.5,   77.0, -999.0
03-05-2022, 00:30:37,     10,    0.0,    8.8,   0.00,   0.00, 1017.5,   76.9, -999.0
03-05-2022, 00:30:46,     10,    0.0,    8.9,   0.00,   0.00, 1017.5,   76.8, -999.0
03-05-2022, 00:30:56,     10,    0.0,    8.9,   0.00,   0.00, 1017.5,   76.9, -999.0
03-05-2022, 00:31:07,     10,    0.0,    8.9,   0.00,   0.00, 1017.5,   76.9, -999.0
03-05-2022, 00:31:16,     10,    0.0,    8.9,   0.00,   0.00, 1017.5,   77.0, -999.0
03-05-2022, 00:31:26,     10,    0.0,    8.8,   0.00,   0.00, 1017.5,   76.9, -999.0
03-05-2022, 00:31:36,     10,    0.0,    8.9,   0.00,   0.00, 1017.5,   77.0, -999.0
03-05-2022, 00:31:46,     10,    0.0,    8.9,   0.00,   0.00, 1017.5,   77.0, -999.0
03-05-2022, 00:31:56,     10,    0.0,    8.9,   0.00,   0.00, 1017.5,   77.0, -999.0
03-05-2022, 00:32:06,     10,    0.0,    8.9,   0.00,   0.00, 1017.5,   76.9, -999.0
03-05-2022, 00:32:16,     10,    0.0,    8.9,   0.00,   0.00, 1017.5,   76.9, -999.0
03-05-2022, 00:32:26,     10,    0.0,    8.9,   0.00,   0.00, 1017.5,   76.9, -999.0
03-05-2022, 00:32:36,     10,    0.0,    8.9,   0.00,   0.00, 1017.5,   77.0, -999.0
03-05-2022, 00:32:46,     10,    0.0,    8.9,   0.00,   0.00, 1017.5,   76.9, -999.0
03-05-2022, 00:32:56,     10,    0.0,    8.9,   0.00,   0.00, 1017.5,   76.9, -999.0
03-05-2022, 00:33:06,     10,    0.0,    8.8,   0.00,   0.00, 1017.5,   76.9, -999.0
03-05-2022, 00:33:16,     10,    0.0,    8.8,   0.00,   0.00, 1017.5,   76.9, -999.0
03-05-2022, 00:33:26,     10,    0.0,    8.8,   0.00,   0.00, 1017.4,   76.9, -999.0
03-05-2022, 00:33:36,     10,    0.0,    8.8,   0.00,   0.00, 1017.5,   77.0, -999.0
03-05-2022, 00:33:46,     10,    0.0,    8.8,   0.00,   0.00, 1017.4,   76.9, -999.0
03-05-2022, 00:33:56,     10,    0.0,    8.8,   0.00,   0.00, 1017.5,   76.9, -999.0
03-05-2022, 00:34:05,     10,    0.0,    8.8,   0.00,   0.00, 1017.5,   76.9, -999.0
03-05-2022, 00:34:16,     10,    0.0,    8.8,   0.00,   0.00, 1017.5,   76.9, -999.0
03-05-2022, 00:34:26,     10,    0.0,    8.8,   0.00,   0.00, 1017.4,   76.9, -999.0
03-05-2022, 00:34:35,     10,    0.0,    8.8,   0.00,   0.00, 1017.4,   77.0, -999.0
03-05-2022, 00:34:45,     10,    0.0,    8.8,   0.00,   0.00, 1017.4,   77.0, -999.0
03-05-2022, 00:34:55,     10,    0.0,    8.7,   0.00,   0.00, 1017.5,   77.0, -999.0
03-05-2022, 00:35:05,     10,    0.0,    8.7,   0.00,   0.00, 1017.5,   77.1, -999.0
03-05-2022, 00:35:15,     10,    0.0,    8.7,   0.00,   0.00, 1017.5,   77.1, -999.0
03-05-2022, 00:35:25,     10,    0.0,    8.8,   0.00,   0.00, 1017.5,   77.1, -999.0
03-05-2022, 00:35:35,     10,    0.0,    8.8,   0.00,   0.00, 1017.4,   77.0, -999.0
03-05-2022, 00:35:45,     10,    0.0,    8.7,   0.00,   0.00, 1017.4,   77.1, -999.0
03-05-2022, 00:35:55,     10,    0.0,    8.7,   0.00,   0.00, 1017.4,   77.1, -999.0
03-05-2022, 00:36:05,     10,    0.0,    8.8,   0.00,   0.00, 1017.4,   77.1, -999.0
03-05-2022, 00:36:15,     10,    0.0,    8.7,   0.00,   0.00, 1017.5,   77.1, -999.0
03-05-2022, 00:36:25,     10,    0.0,    8.8,   0.00,   0.00, 1017.4,   77.1, -999.0
03-05-2022, 00:36:35,     10,    0.0,    8.8,   0.00,   0.00, 1017.4,   77.2, -999.0
03-05-2022, 00:36:45,     10,    0.0,    8.7,   0.00,   0.00, 1017.5,   77.1, -999.0
03-05-2022, 00:36:55,      4,    0.0,    8.7,   0.00,   0.00, 1017.5,   77.2, -999.0
03-05-2022, 00:37:05,     12,    0.0,    8.8,   0.00,   0.00, 1017.4,   77.2, -999.0
03-05-2022, 00:37:14,     12,    0.0,    8.8,   0.00,   0.00, 1017.5,   77.2, -999.0
03-05-2022, 00:37:25,     12,    0.0,    8.7,   0.00,   0.00, 1017.4,   77.0, -999.0
03-05-2022, 00:37:35,     12,    0.0,    8.7,   0.00,   0.00, 1017.4,   77.1, -999.0
03-05-2022, 00:37:44,     13,    0.0,    8.7,   0.00,   0.00, 1017.5,   77.1, -999.0
03-05-2022, 00:37:54,     13,    0.0,    8.6,   0.00,   0.00, 1017.4,   77.1, -999.0
03-05-2022, 00:38:05,     12,    0.0,    8.7,   0.00,   0.00, 1017.4,   77.2, -999.0
03-05-2022, 00:38:14,     13,    0.0,    8.7,   0.00,   0.00, 1017.4,   77.4, -999.0
03-05-2022, 00:38:24,     13,    0.0,    8.7,   0.00,   0.00, 1017.4,   77.5, -999.0
03-05-2022, 00:38:34,     13,    0.0,    8.6,   0.00,   0.00, 1017.4,   77.4, -999.0
03-05-2022, 00:38:44,     14,    0.0,    8.7,   0.00,   0.00, 1017.4,   77.5, -999.0
03-05-2022, 00:38:54,     13,    0.0,    8.8,   0.00,   0.00, 1017.4,   77.5, -999.0
03-05-2022, 00:39:04,     13,    0.0,    8.8,   0.00,   0.00, 1017.4,   77.5, -999.0
03-05-2022, 00:39:14,     13,    0.0,    8.7,   0.00,   0.00, 1017.4,   77.5, -999.0
03-05-2022, 00:39:24,     13,    0.0,    8.7,   0.00,   0.00, 1017.4,   77.4, -999.0
03-05-2022, 00:39:34,     13,    0.0,    8.8,   0.00,   0.00, 1017.4,   77.5, -999.0
03-05-2022, 00:39:44,     13,    0.0,    8.8,   0.00,   0.00, 1017.4,   77.4, -999.0
03-05-2022, 00:39:54,     13,    0.0,    8.7,   0.00,   0.00, 1017.4,   77.5, -999.0
03-05-2022, 00:40:04,     13,    0.0,    8.7,   0.00,   0.00, 1017.4,   77.4, -999.0
03-05-2022, 00:40:14,     13,    0.0,    8.6,   0.00,   0.00, 1017.4,   77.4, -999.0
03-05-2022, 00:40:24,     13,    0.0,    8.7,   0.00,   0.00, 1017.4,   77.3, -999.0
03-05-2022, 00:40:33,     13,    0.0,    8.7,   0.00,   0.00, 1017.4,   77.4, -999.0
03-05-2022, 00:40:44,     13,    0.0,    8.6,   0.00,   0.00, 1017.4,   77.4, -999.0
03-05-2022, 00:40:54,     13,    0.0,    8.7,   0.00,   0.00, 1017.4,   77.4, -999.0
03-05-2022, 00:41:03,     13,    0.0,    8.7,   0.00,   0.00, 1017.4,   77.5, -999.0
03-05-2022, 00:41:13,     13,    0.0,    8.7,   0.00,   0.00, 1017.5,   77.5, -999.0
03-05-2022, 00:41:24,     13,    0.0,    8.6,   0.00,   0.00, 1017.5,   77.3, -999.0
03-05-2022, 00:41:33,     13,    0.0,    8.6,   0.00,   0.00, 1017.4,   77.4, -999.0
03-05-2022, 00:41:43,     13,    0.0,    8.6,   0.00,   0.00, 1017.4,   77.5, -999.0
03-05-2022, 00:41:53,     13,    0.0,    8.6,   0.00,   0.00, 1017.4,   77.5, -999.0
03-05-2022, 00:42:03,     13,    0.0,    8.6,   0.00,   0.00, 1017.4,   77.7, -999.0
03-05-2022, 00:42:13,     13,    0.0,    8.6,   0.00,   0.00, 1017.4,   77.6, -999.0
03-05-2022, 00:42:23,     13,    0.0,    8.6,   0.00,   0.00, 1017.4,   77.7, -999.0
03-05-2022, 00:42:33,     13,    0.0,    8.6,   0.00,   0.00, 1017.4,   77.7, -999.0
03-05-2022, 00:42:43,     13,    0.0,    8.6,   0.00,   0.00, 1017.4,   77.6, -999.0
03-05-2022, 00:42:53,     12,    0.0,    8.6,   0.00,   0.00, 1017.4,   77.7, -999.0
03-05-2022, 00:43:03,     13,    0.0,    8.6,   0.00,   0.00, 1017.4,   77.7, -999.0
03-05-2022, 00:43:13,     17,    0.7,    8.6,   0.00,   0.00, 1017.5,   78.0, -999.0
03-05-2022, 00:43:23,     17,    1.1,    8.7,   0.00,   0.00, 1017.6,   78.1, -999.0
03-05-2022, 00:43:33,      0,    0.4,    8.7,   0.00,   0.00, 1017.6,   78.2, -999.0
03-05-2022, 00:43:43,      0,    0.3,    8.7,   0.00,   0.00, 1017.6,   78.2, -999.0
03-05-2022, 00:43:53,      0,    0.0,    8.6,   0.00,   0.00, 1017.4,   77.8, -999.0
03-05-2022, 00:44:03,      0,    0.3,    8.6,   0.00,   0.00, 1017.6,   78.3, -999.0
03-05-2022, 00:44:12,      0,    0.0,    8.6,   0.00,   0.00, 1017.4,   77.9, -999.0
03-05-2022, 00:44:22,      0,    0.0,    8.6,   0.00,   0.00, 1017.4,   78.0, -999.0
03-05-2022, 00:44:33,      0,    0.0,    8.5,   0.00,   0.00, 1017.4,   78.1, -999.0
03-05-2022, 00:44:42,      0,    0.0,    8.6,   0.00,   0.00, 1017.4,   78.2, -999.0
03-05-2022, 00:44:52,      0,    0.0,    8.6,   0.00,   0.00, 1017.4,   78.1, -999.0
03-05-2022, 00:45:03,      0,    0.0,    8.6,   0.00,   0.00, 1017.4,   78.0, -999.0
03-05-2022, 00:45:12,      0,    0.0,    8.5,   0.00,   0.00, 1017.4,   78.1, -999.0
03-05-2022, 00:45:22,      0,    0.0,    8.6,   0.00,   0.00, 1017.4,   78.0, -999.0
03-05-2022, 00:45:32,      0,    0.0,    8.6,   0.00,   0.00, 1017.4,   78.1, -999.0
03-05-2022, 00:45:42,      0,    0.0,    8.6,   0.00,   0.00, 1017.4,   78.1, -999.0
03-05-2022, 00:45:52,      0,    0.0,    8.6,   0.00,   0.00, 1017.4,   77.9, -999.0
03-05-2022, 00:46:02,      0,    0.0,    8.6,   0.00,   0.00, 1017.5,   78.1, -999.0
03-05-2022, 00:46:12,      8,    0.2,    8.6,   0.00,   0.00, 1017.5,   78.1, -999.0
03-05-2022, 00:46:22,      6,    0.6,    8.7,   0.00,   0.00, 1017.6,   78.4, -999.0
03-05-2022, 00:46:32,      6,    0.0,    8.6,   0.00,   0.00, 1017.4,   77.9, -999.0
03-05-2022, 00:46:42,      6,    0.0,    8.6,   0.00,   0.00, 1017.4,   78.1, -999.0